| time (UTC) | temp F | wind direction | speed MPH | gust MPH | rain 1hr in | rain 24hr in | rain mn in | humidity % | barometer mb |
| 20260905204612 | 68 | 88 | 4.0 | 10.0 | 0.00 | 0.00 | 0.00 | 73 | 1011.5 |
| 20260905204100 | 68 | 70 | 0.0 | 10.0 | 0.00 | 0.00 | 0.00 | 74 | 1011.5 |
| 20260905203600 | 68 | 0 | 2.0 | 10.0 | 0.00 | 0.00 | 0.00 | 74 | 1011.4 |
| 20260905203107 | 68 | 88 | 4.0 | 10.0 | 0.00 | 0.00 | 0.00 | 73 | 1011.3 |
| 20260905202600 | 69 | 74 | 3.0 | 7.0 | 0.00 | 0.00 | 0.00 | 74 | 1011.3 |
| 20260905202103 | 69 | 95 | 4.0 | 7.0 | 0.00 | 0.00 | 0.00 | 73 | 1011.3 |
| 20260905201609 | 69 | 109 | 2.0 | 8.0 | 0.00 | 0.00 | 0.00 | 74 | 1011.2 |
| 20260905201100 | 69 | 24 | 1.0 | 8.0 | 0.00 | 0.00 | 0.00 | 74 | 1011.2 |
| 20260905200600 | 69 | 94 | 3.0 | 10.0 | 0.00 | 0.00 | 0.00 | 73 | 1011.1 |
| 20260905195601 | 70 | 78 | 3.0 | 12.0 | 0.00 | 0.00 | 0.00 | 72 | 1011.0 |
| 20260905195059 | 69 | 17 | 5.0 | 12.0 | 0.00 | 0.00 | 0.00 | 72 | 1011.0 |
| 20260905194605 | 70 | 79 | 3.0 | 11.0 | 0.00 | 0.00 | 0.00 | 73 | 1011.0 |
| 20260905194100 | 70 | 92 | 4.0 | 10.0 | 0.00 | 0.00 | 0.00 | 74 | 1010.9 |
| 20260905193600 | 70 | 121 | 4.0 | 10.0 | 0.00 | 0.00 | 0.00 | 72 | 1010.9 |
| 20260905193104 | 70 | 88 | 1.0 | 10.0 | 0.00 | 0.00 | 0.00 | 72 | 1010.8 |
| 20260905192601 | 70 | 315 | 3.0 | 9.0 | 0.00 | 0.00 | 0.00 | 72 | 1010.9 |
| 20260905192101 | 70 | 100 | 4.0 | 9.0 | 0.00 | 0.00 | 0.00 | 73 | 1010.9 |
| 20260905191602 | 70 | 24 | 3.0 | 9.0 | 0.00 | 0.00 | 0.00 | 72 | 1010.9 |
| 20260905191101 | 70 | 351 | 4.0 | 9.0 | 0.00 | 0.00 | 0.00 | 72 | 1010.9 |
| 20260905190600 | 71 | 11 | 4.0 | 9.0 | 0.00 | 0.00 | 0.00 | 72 | 1010.9 |
| 20260905190103 | 70 | 70 | 2.0 | 9.0 | 0.00 | 0.00 | 0.00 | 73 | 1011.0 |
| 20260905185600 | 70 | 355 | 2.0 | 9.0 | 0.00 | 0.00 | 0.00 | 72 | 1011.0 |
| 20260905185105 | 70 | 63 | 2.0 | 11.0 | 0.00 | 0.00 | 0.00 | 72 | 1010.9 |
| 20260905184612 | 70 | 82 | 4.0 | 11.0 | 0.00 | 0.00 | 0.00 | 72 | 1010.9 |
| 20260905184100 | 70 | 19 | 5.0 | 11.0 | 0.00 | 0.00 | 0.00 | 72 | 1010.9 |
| 20260905183601 | 70 | 121 | 3.0 | 11.0 | 0.00 | 0.00 | 0.00 | 73 | 1010.9 |
| 20260905183115 | 70 | 0 | 4.0 | 11.0 | 0.00 | 0.00 | 0.00 | 71 | 1010.9 |
| 20260905182601 | 71 | 75 | 3.0 | 11.0 | 0.00 | 0.00 | 0.00 | 71 | 1010.9 |
| 20260905182102 | 71 | 98 | 5.0 | 11.0 | 0.00 | 0.00 | 0.00 | 71 | 1010.9 |
| 20260905181603 | 70 | 86 | 2.0 | 9.0 | 0.00 | 0.00 | 0.00 | 72 | 1011.0 |
| 20260905181100 | 70 | 51 | 3.0 | 10.0 | 0.00 | 0.00 | 0.00 | 72 | 1010.9 |
| 20260905180601 | 70 | 223 | 1.0 | 10.0 | 0.00 | 0.00 | 0.00 | 70 | 1011.0 |
| 20260905180105 | 70 | 251 | 1.0 | 8.0 | 0.00 | 0.00 | 0.00 | 71 | 1010.9 |
| 20260905175600 | 70 | 121 | 3.0 | 8.0 | 0.00 | 0.00 | 0.00 | 71 | 1010.8 |
| 20260905175100 | 70 | 42 | 2.0 | 7.0 | 0.00 | 0.00 | 0.00 | 71 | 1010.8 |
| 20260905174608 | 70 | 160 | 1.0 | 9.0 | 0.00 | 0.00 | 0.00 | 73 | 1010.7 |
| 20260905174101 | 70 | 92 | 2.0 | 9.0 | 0.00 | 0.00 | 0.00 | 73 | 1010.7 |
| 20260905173601 | 70 | 35 | 4.0 | 9.0 | 0.00 | 0.00 | 0.00 | 72 | 1010.7 |
| 20260905173108 | 70 | 29 | 3.0 | 8.0 | 0.00 | 0.00 | 0.00 | 72 | 1010.6 |
| 20260905172601 | 70 | 51 | 2.0 | 10.0 | 0.00 | 0.00 | 0.00 | 73 | 1010.6 |
| 20260905172101 | 70 | 94 | 3.0 | 10.0 | 0.00 | 0.00 | 0.00 | 73 | 1010.7 |
| 20260905171607 | 70 | 103 | 1.0 | 8.0 | 0.00 | 0.00 | 0.00 | 73 | 1010.7 |
| 20260905171100 | 70 | 94 | 2.0 | 6.0 | 0.00 | 0.00 | 0.00 | 72 | 1010.7 |
| 20260905170600 | 70 | 0 | 2.0 | 8.0 | 0.00 | 0.00 | 0.00 | 73 | 1010.6 |
| 20260905170112 | 70 | 117 | 3.0 | 8.0 | 0.00 | 0.00 | 0.00 | 73 | 1010.7 |
| 20260905165604 | 70 | 22 | 3.0 | 8.0 | 0.00 | 0.00 | 0.00 | 72 | 1010.7 |
| 20260905165104 | 70 | 105 | 2.0 | 10.0 | 0.00 | 0.00 | 0.00 | 73 | 1010.7 |
| 20260905164608 | 70 | 0 | 3.0 | 10.0 | 0.00 | 0.00 | 0.00 | 73 | 1010.7 |
| 20260905164102 | 70 | 136 | 3.0 | 8.0 | 0.00 | 0.00 | 0.00 | 73 | 1010.8 |
| 20260905163601 | 70 | 146 | 3.0 | 8.0 | 0.00 | 0.00 | 0.00 | 72 | 1010.7 |
| 20260905163105 | 71 | 184 | 2.0 | 11.0 | 0.00 | 0.00 | 0.00 | 72 | 1010.8 |
| 20260905162601 | 71 | 28 | 3.0 | 14.0 | 0.00 | 0.00 | 0.00 | 72 | 1010.7 |
| 20260905162101 | 70 | 56 | 4.0 | 14.0 | 0.00 | 0.00 | 0.00 | 72 | 1010.7 |
| 20260905161615 | 71 | 90 | 5.0 | 14.0 | 0.00 | 0.00 | 0.00 | 72 | 1010.7 |
| 20260905161100 | 71 | 11 | 3.0 | 12.0 | 0.00 | 0.00 | 0.00 | 73 | 1010.6 |
| 20260905160600 | 70 | 71 | 3.0 | 12.0 | 0.00 | 0.00 | 0.00 | 71 | 1010.6 |
| 20260905155601 | 71 | 53 | 2.0 | 11.0 | 0.00 | 0.00 | 0.00 | 71 | 1010.5 |
| 20260905155101 | 71 | 93 | 2.0 | 11.0 | 0.00 | 0.00 | 0.00 | 70 | 1010.5 |
| 20260905154606 | 71 | 360 | 3.0 | 11.0 | 0.00 | 0.00 | 0.00 | 70 | 1010.5 |
| 20260905154101 | 71 | 44 | 2.0 | 8.0 | 0.00 | 0.00 | 0.00 | 71 | 1010.6 |
| 20260905153601 | 71 | 23 | 2.0 | 7.0 | 0.00 | 0.00 | 0.00 | 71 | 1010.5 |
| 20260905153108 | 71 | 65 | 3.0 | 12.0 | 0.00 | 0.00 | 0.00 | 71 | 1010.4 |
| 20260905152601 | 71 | 136 | 2.0 | 12.0 | 0.00 | 0.00 | 0.00 | 71 | 1010.4 |
| 20260905152101 | 72 | 78 | 3.0 | 11.0 | 0.00 | 0.00 | 0.00 | 70 | 1010.4 |
| 20260905151607 | 71 | 65 | 3.0 | 9.0 | 0.00 | 0.00 | 0.00 | 70 | 1010.3 |
| 20260905151101 | 71 | 76 | 2.0 | 8.0 | 0.00 | 0.00 | 0.00 | 72 | 1010.3 |
| 20260905150603 | 70 | 49 | 1.0 | 8.0 | 0.00 | 0.00 | 0.00 | 72 | 1010.3 |
| 20260905145601 | 70 | 323 | 1.0 | 11.0 | 0.00 | 0.00 | 0.00 | 72 | 1010.2 |
| 20260905145101 | 71 | 91 | 3.0 | 11.0 | 0.00 | 0.00 | 0.00 | 70 | 1010.3 |
| 20260905144606 | 71 | 79 | 3.0 | 11.0 | 0.00 | 0.00 | 0.00 | 70 | 1010.3 |
| 20260905144101 | 72 | 360 | 2.0 | 11.0 | 0.00 | 0.00 | 0.00 | 70 | 1010.4 |
| 20260905143600 | 72 | 123 | 3.0 | 10.0 | 0.00 | 0.00 | 0.00 | 70 | 1010.2 |
| 20260905143101 | 72 | 136 | 3.0 | 8.0 | 0.00 | 0.00 | 0.00 | 71 | 1010.2 |
| 20260905142601 | 71 | 338 | 2.0 | 9.0 | 0.00 | 0.00 | 0.00 | 72 | 1010.2 |
| 20260905142100 | 70 | 47 | 2.0 | 9.0 | 0.00 | 0.00 | 0.00 | 73 | 1010.2 |
| 20260905141604 | 70 | 52 | 3.0 | 10.0 | 0.00 | 0.00 | 0.00 | 74 | 1010.2 |
| 20260905141100 | 70 | 91 | 1.0 | 10.0 | 0.00 | 0.00 | 0.00 | 72 | 1010.2 |
| 20260905140600 | 72 | 82 | 1.0 | 8.0 | 0.00 | 0.00 | 0.00 | 72 | 1010.2 |
| 20260905140128 | 71 | 63 | 3.0 | 8.0 | 0.00 | 0.00 | 0.00 | 72 | 1010.1 |
| 20260905135601 | 71 | 315 | 3.0 | 8.0 | 0.00 | 0.00 | 0.00 | 72 | 1010.1 |
| 20260905135101 | 70 | 26 | 2.0 | 7.0 | 0.00 | 0.00 | 0.00 | 73 | 1010.2 |
| 20260905134606 | 70 | 30 | 2.0 | 7.0 | 0.00 | 0.00 | 0.00 | 74 | 1010.2 |
| 20260905134103 | 69 | 25 | 1.0 | 9.0 | 0.00 | 0.00 | 0.00 | 74 | 1010.3 |
| 20260905133601 | 69 | 63 | 2.0 | 9.0 | 0.00 | 0.00 | 0.00 | 74 | 1010.4 |
| 20260905133101 | 70 | 49 | 3.0 | 9.0 | 0.00 | 0.00 | 0.00 | 73 | 1010.2 |
| 20260905132600 | 70 | 105 | 1.0 | 6.0 | 0.00 | 0.00 | 0.00 | 74 | 1010.2 |
| 20260905132101 | 70 | 0 | 1.0 | 6.0 | 0.00 | 0.00 | 0.00 | 75 | 1010.2 |
| 20260905131625 | 69 | 130 | 3.0 | 8.0 | 0.00 | 0.00 | 0.00 | 74 | 1010.1 |
| 20260905131104 | 69 | 344 | 2.0 | 9.0 | 0.00 | 0.00 | 0.00 | 76 | 1010.0 |
| 20260905130603 | 69 | 69 | 3.0 | 9.0 | 0.00 | 0.00 | 0.00 | 76 | 1009.9 |
| 20260905130105 | 68 | 218 | 1.0 | 6.0 | 0.00 | 0.00 | 0.00 | 79 | 1010.0 |
| 20260905125600 | 67 | 289 | 0.0 | 4.0 | 0.00 | 0.00 | 0.00 | 79 | 1009.9 |
| 20260905125100 | 67 | 9 | 1.0 | 5.0 | 0.00 | 0.00 | 0.00 | 80 | 1009.9 |
| 20260905124606 | 67 | 0 | 1.0 | 5.0 | 0.00 | 0.00 | 0.00 | 79 | 1009.9 |
| 20260905124101 | 67 | 0 | 1.0 | 7.0 | 0.00 | 0.00 | 0.00 | 79 | 1009.9 |
| 20260905123601 | 66 | 31 | 1.0 | 7.0 | 0.00 | 0.00 | 0.00 | 81 | 1009.8 |
| 20260905123110 | 66 | 342 | 0.0 | 7.0 | 0.00 | 0.00 | 0.00 | 81 | 1009.8 |
| 20260905122559 | 66 | 176 | 1.0 | 7.0 | 0.00 | 0.00 | 0.00 | 82 | 1009.7 |
| 20260905122104 | 65 | 46 | 0.0 | 6.0 | 0.00 | 0.00 | 0.00 | 83 | 1009.7 |
| 20260905121602 | 65 | 0 | 1.0 | 6.0 | 0.00 | 0.00 | 0.00 | 84 | 1009.7 |
| 20260905121100 | 65 | 0 | 0.0 | 3.0 | 0.00 | 0.00 | 0.00 | 84 | 1009.7 |
| 20260905120601 | 64 | 0 | 0.0 | 3.0 | 0.00 | 0.00 | 0.00 | 85 | 1009.6 |
| 20260905120100 | 64 | 310 | 0.0 | 2.0 | 0.00 | 0.00 | 0.00 | 86 | 1009.6 |
| 20260905115601 | 63 | 0 | 0.0 | 2.0 | 0.00 | 0.00 | 0.00 | 87 | 1009.6 |
| 20260905115104 | 63 | 15 | 0.0 | 3.0 | 0.00 | 0.00 | 0.00 | 88 | 1009.5 |
| 20260905114600 | 63 | 0 | 0.0 | 3.0 | 0.00 | 0.00 | 0.00 | 89 | 1009.6 |
| 20260905114101 | 62 | 0 | 0.0 | 2.0 | 0.00 | 0.00 | 0.00 | 90 | 1009.6 |
| 20260905113601 | 62 | 0 | 0.0 | 2.0 | 0.00 | 0.00 | 0.00 | 91 | 1009.5 |
| 20260905113112 | 61 | 0 | 0.0 | 0.0 | 0.00 | 0.00 | 0.00 | 91 | 1009.5 |
| 20260905112601 | 61 | 0 | 0.0 | 0.0 | 0.00 | 0.00 | 0.00 | 92 | 1009.5 |
| 20260905112101 | 60 | 0 | 0.0 | 0.0 | 0.00 | 0.00 | 0.00 | 92 | 1009.5 |
| 20260905111607 | 59 | 0 | 0.0 | 0.0 | 0.00 | 0.00 | 0.00 | 92 | 1009.4 |
| 20260905111101 | 59 | 0 | 0.0 | 1.0 | 0.00 | 0.00 | 0.00 | 92 | 1009.4 |
| 20260905110601 | 59 | 0 | 0.0 | 1.0 | 0.00 | 0.00 | 0.00 | 92 | 1009.4 |
| 20260905110105 | 59 | 0 | 0.0 | 0.0 | 0.00 | 0.00 | 0.00 | 92 | 1009.3 |
| 20260905105601 | 59 | 0 | 0.0 | 1.0 | 0.00 | 0.00 | 0.00 | 92 | 1009.2 |
| 20260905105101 | 59 | 0 | 0.0 | 1.0 | 0.00 | 0.00 | 0.00 | 92 | 1009.2 |
| 20260905104616 | 59 | 0 | 0.0 | 1.0 | 0.00 | 0.00 | 0.00 | 92 | 1009.1 |
| 20260905104100 | 59 | 0 | 0.0 | 1.0 | 0.00 | 0.00 | 0.00 | 92 | 1009.2 |
| 20260905103600 | 59 | 0 | 0.0 | 1.0 | 0.00 | 0.00 | 0.00 | 92 | 1009.2 |
| 20260905103108 | 58 | 0 | 0.0 | 0.0 | 0.00 | 0.00 | 0.00 | 92 | 1009.2 |
| 20260905102559 | 59 | 0 | 0.0 | 0.0 | 0.00 | 0.00 | 0.00 | 91 | 1009.1 |
| 20260905102101 | 59 | 0 | 0.0 | 0.0 | 0.00 | 0.00 | 0.00 | 91 | 1009.0 |
| 20260905101612 | 59 | 0 | 0.0 | 0.0 | 0.00 | 0.00 | 0.00 | 91 | 1009.1 |
| 20260905101103 | 59 | 0 | 0.0 | 0.0 | 0.00 | 0.00 | 0.00 | 91 | 1009.0 |
| 20260905100559 | 59 | 0 | 0.0 | 0.0 | 0.00 | 0.00 | 0.00 | 91 | 1009.1 |
| 20260905100124 | 59 | 0 | 0.0 | 1.0 | 0.00 | 0.00 | 0.00 | 90 | 1009.1 |
| 20260905095600 | 59 | 0 | 0.0 | 1.0 | 0.00 | 0.00 | 0.00 | 90 | 1009.1 |
| 20260905095101 | 59 | 0 | 0.0 | 0.0 | 0.00 | 0.00 | 0.00 | 90 | 1009.1 |
| 20260905094602 | 59 | 0 | 0.0 | 1.0 | 0.00 | 0.00 | 0.00 | 90 | 1009.1 |
| 20260905094103 | 60 | 0 | 0.0 | 1.0 | 0.00 | 0.00 | 0.00 | 90 | 1009.0 |
| 20260905093600 | 60 | 0 | 0.0 | 1.0 | 0.00 | 0.00 | 0.00 | 90 | 1009.0 |
| 20260905093103 | 60 | 252 | 0.0 | 2.0 | 0.00 | 0.00 | 0.00 | 90 | 1009.1 |
| 20260905092602 | 60 | 0 | 0.0 | 2.0 | 0.00 | 0.00 | 0.00 | 90 | 1008.9 |
| 20260905092059 | 60 | 0 | 0.0 | 1.0 | 0.00 | 0.00 | 0.00 | 90 | 1008.9 |
| 20260905091606 | 60 | 0 | 0.0 | 1.0 | 0.00 | 0.00 | 0.00 | 89 | 1008.9 |
| 20260905091102 | 60 | 0 | 0.0 | 1.0 | 0.00 | 0.00 | 0.00 | 89 | 1009.0 |
| 20260905090559 | 60 | 0 | 0.0 | 1.0 | 0.00 | 0.00 | 0.00 | 89 | 1008.9 |
| 20260905090134 | 60 | 0 | 0.0 | 1.0 | 0.00 | 0.00 | 0.00 | 89 | 1008.9 |
| 20260905085601 | 60 | 0 | 0.0 | 1.0 | 0.00 | 0.00 | 0.00 | 89 | 1009.0 |
| 20260905085100 | 60 | 0 | 0.0 | 2.0 | 0.00 | 0.00 | 0.00 | 89 | 1008.9 |
| 20260905084617 | 61 | 0 | 0.0 | 2.0 | 0.00 | 0.00 | 0.00 | 90 | 1008.9 |
| 20260905084100 | 60 | 269 | 0.0 | 2.0 | 0.00 | 0.00 | 0.00 | 90 | 1008.8 |
| 20260905083559 | 60 | 0 | 0.0 | 1.0 | 0.00 | 0.00 | 0.00 | 90 | 1008.9 |
| 20260905083102 | 60 | 0 | 0.0 | 0.0 | 0.00 | 0.00 | 0.00 | 90 | 1008.9 |
| 20260905082601 | 60 | 0 | 0.0 | 0.0 | 0.00 | 0.00 | 0.00 | 90 | 1009.0 |
| 20260905082100 | 60 | 0 | 0.0 | 0.0 | 0.00 | 0.00 | 0.00 | 91 | 1008.9 |
| 20260905081604 | 60 | 0 | 0.0 | 0.0 | 0.00 | 0.00 | 0.00 | 91 | 1008.9 |
| 20260905081100 | 60 | 0 | 0.0 | 0.0 | 0.00 | 0.00 | 0.00 | 91 | 1008.9 |
| 20260905080559 | 60 | 0 | 0.0 | 0.0 | 0.00 | 0.00 | 0.00 | 91 | 1009.0 |
| 20260905075600 | 60 | 0 | 0.0 | 2.0 | 0.00 | 0.00 | 0.00 | 90 | 1009.0 |
| 20260905075057 | 60 | 225 | 0.0 | 1.0 | 0.00 | 0.00 | 0.00 | 90 | 1009.0 |
| 20260905074608 | 60 | 0 | 0.0 | 1.0 | 0.00 | 0.00 | 0.00 | 90 | 1009.0 |
| 20260905074059 | 60 | 0 | 0.0 | 1.0 | 0.00 | 0.00 | 0.00 | 90 | 1009.0 |
| 20260905073600 | 60 | 0 | 0.0 | 1.0 | 0.00 | 0.00 | 0.00 | 90 | 1009.0 |
| 20260905073103 | 60 | 0 | 0.0 | 1.0 | 0.00 | 0.00 | 0.00 | 90 | 1009.0 |
| 20260905072559 | 60 | 0 | 0.0 | 1.0 | 0.00 | 0.00 | 0.00 | 89 | 1008.9 |
| 20260905072103 | 60 | 0 | 0.0 | 1.0 | 0.00 | 0.00 | 0.00 | 89 | 1009.0 |
| 20260905071618 | 60 | 0 | 0.0 | 1.0 | 0.00 | 0.00 | 0.00 | 89 | 1009.0 |
| 20260905071101 | 61 | 0 | 0.0 | 0.0 | 0.00 | 0.00 | 0.00 | 88 | 1009.0 |
| 20260905070603 | 61 | 0 | 0.0 | 0.0 | 0.00 | 0.00 | 0.00 | 88 | 1009.0 |
| 20260905070105 | 61 | 0 | 0.0 | 0.0 | 0.00 | 0.00 | 0.00 | 88 | 1009.1 |
| 20260905065601 | 61 | 0 | 0.0 | 1.0 | 0.00 | 0.00 | 0.00 | 87 | 1009.2 |
| 20260905065100 | 62 | 0 | 0.0 | 1.0 | 0.00 | 0.00 | 0.00 | 87 | 1009.2 |
| 20260905064605 | 62 | 296 | 0.0 | 1.0 | 0.00 | 0.00 | 0.00 | 86 | 1009.5 |
| 20260905064103 | 62 | 0 | 0.0 | 1.0 | 0.00 | 0.00 | 0.00 | 86 | 1009.5 |
| 20260905063605 | 62 | 0 | 0.0 | 0.0 | 0.00 | 0.00 | 0.00 | 86 | 1009.5 |
| 20260905063105 | 62 | 0 | 0.0 | 0.0 | 0.00 | 0.00 | 0.00 | 86 | 1009.5 |
| 20260905062559 | 62 | 0 | 0.0 | 0.0 | 0.00 | 0.00 | 0.00 | 86 | 1009.5 |
| 20260905062101 | 62 | 0 | 0.0 | 0.0 | 0.00 | 0.00 | 0.00 | 87 | 1009.4 |
| 20260905061603 | 62 | 0 | 0.0 | 0.0 | 0.00 | 0.00 | 0.00 | 87 | 1009.6 |
| 20260905061100 | 62 | 0 | 0.0 | 0.0 | 0.00 | 0.00 | 0.00 | 87 | 1009.5 |
| 20260905060600 | 62 | 0 | 0.0 | 0.0 | 0.00 | 0.00 | 0.00 | 87 | 1009.6 |
| 20260905060107 | 62 | 0 | 0.0 | 0.0 | 0.00 | 0.00 | 0.00 | 86 | 1009.6 |
| 20260905055559 | 62 | 0 | 0.0 | 0.0 | 0.00 | 0.00 | 0.00 | 86 | 1009.6 |
| 20260905055104 | 63 | 0 | 0.0 | 0.0 | 0.00 | 0.00 | 0.00 | 86 | 1009.5 |
| 20260905054606 | 63 | 0 | 0.0 | 0.0 | 0.00 | 0.00 | 0.00 | 86 | 1009.5 |
| 20260905054100 | 63 | 0 | 0.0 | 0.0 | 0.00 | 0.00 | 0.00 | 86 | 1009.5 |
| 20260905053559 | 63 | 0 | 0.0 | 0.0 | 0.00 | 0.00 | 0.00 | 87 | 1009.5 |
| 20260905053105 | 63 | 0 | 0.0 | 0.0 | 0.00 | 0.00 | 0.00 | 87 | 1009.4 |
| 20260905052603 | 63 | 0 | 0.0 | 0.0 | 0.00 | 0.00 | 0.00 | 87 | 1009.4 |
| 20260905052100 | 63 | 0 | 0.0 | 0.0 | 0.00 | 0.00 | 0.00 | 87 | 1009.6 |
| 20260905051606 | 63 | 0 | 0.0 | 0.0 | 0.00 | 0.00 | 0.00 | 87 | 1009.6 |
| 20260905051100 | 63 | 0 | 0.0 | 1.0 | 0.00 | 0.00 | 0.00 | 87 | 1009.6 |
| 20260905050600 | 63 | 0 | 0.0 | 2.0 | 0.00 | 0.00 | 0.00 | 87 | 1009.6 |
| 20260905050106 | 63 | 0 | 0.0 | 2.0 | 0.00 | 0.00 | 0.00 | 87 | 1009.6 |
| 20260905045559 | 63 | 248 | 0.0 | 2.0 | 0.00 | 0.00 | 0.00 | 87 | 1009.5 |
| 20260905045100 | 63 | 248 | 0.0 | 1.0 | 0.00 | 0.00 | 0.00 | 88 | 1009.5 |
| 20260905044603 | 63 | 0 | 0.0 | 1.0 | 0.00 | 0.00 | 0.00 | 88 | 1009.6 |
| 20260905044059 | 63 | 0 | 0.0 | 1.0 | 0.00 | 0.00 | 0.00 | 87 | 1009.5 |
| 20260905043603 | 63 | 0 | 0.0 | 1.0 | 0.00 | 0.00 | 0.00 | 87 | 1009.5 |
| 20260905043102 | 63 | 0 | 0.0 | 0.0 | 0.00 | 0.00 | 0.00 | 86 | 1009.6 |
| 20260905042559 | 63 | 0 | 0.0 | 0.0 | 0.00 | 0.00 | 0.00 | 86 | 1009.5 |
| 20260905042059 | 64 | 0 | 0.0 | 1.0 | 0.00 | 0.00 | 0.00 | 85 | 1009.5 |
| 20260905041621 | 64 | 0 | 0.0 | 2.0 | 0.00 | 0.00 | 0.00 | 85 | 1009.5 |
| 20260905041059 | 64 | 0 | 0.0 | 2.0 | 0.00 | 0.00 | 0.00 | 86 | 1009.6 |
| 20260905040600 | 64 | 0 | 0.0 | 1.0 | 0.00 | 0.00 | 0.00 | 85 | 1009.6 |
| 20260905040125 | 64 | 0 | 0.0 | 2.0 | 0.00 | 0.00 | 0.00 | 85 | 1009.5 |
| 20260905035559 | 64 | 213 | 0.0 | 2.0 | 0.00 | 0.00 | 0.00 | 86 | 1009.5 |
| 20260905035059 | 64 | 0 | 0.0 | 4.0 | 0.00 | 0.00 | 0.00 | 85 | 1009.5 |
| 20260905034616 | 64 | 0 | 0.0 | 4.0 | 0.00 | 0.00 | 0.00 | 84 | 1009.5 |
| 20260905034059 | 64 | 0 | 0.0 | 2.0 | 0.00 | 0.00 | 0.00 | 83 | 1009.5 |
| 20260905033600 | 64 | 0 | 0.0 | 2.0 | 0.00 | 0.00 | 0.00 | 84 | 1009.4 |
| 20260905033115 | 65 | 241 | 0.0 | 2.0 | 0.00 | 0.00 | 0.00 | 84 | 1009.5 |
| 20260905032600 | 65 | 0 | 0.0 | 2.0 | 0.00 | 0.00 | 0.00 | 85 | 1009.4 |
| 20260905032059 | 65 | 240 | 0.0 | 1.0 | 0.00 | 0.00 | 0.00 | 85 | 1009.5 |
| 20260905031604 | 65 | 0 | 0.0 | 1.0 | 0.00 | 0.00 | 0.00 | 85 | 1009.6 |
| 20260905031100 | 65 | 0 | 0.0 | 2.0 | 0.00 | 0.00 | 0.00 | 85 | 1009.6 |
| 20260905030559 | 65 | 225 | 0.0 | 2.0 | 0.00 | 0.00 | 0.00 | 85 | 1009.6 |
| 20260905030105 | 65 | 225 | 0.0 | 2.0 | 0.00 | 0.00 | 0.00 | 86 | 1009.6 |
| 20260905025601 | 65 | 236 | 0.0 | 2.0 | 0.00 | 0.00 | 0.00 | 85 | 1009.5 |
| 20260905025100 | 65 | 0 | 0.0 | 0.0 | 0.00 | 0.00 | 0.00 | 86 | 1009.4 |
| 20260905024605 | 65 | 0 | 0.0 | 0.0 | 0.00 | 0.00 | 0.00 | 85 | 1009.4 |
| 20260905024100 | 65 | 0 | 0.0 | 2.0 | 0.00 | 0.00 | 0.00 | 84 | 1009.5 |
| 20260905023600 | 65 | 0 | 0.0 | 2.0 | 0.00 | 0.00 | 0.00 | 84 | 1009.5 |
| 20260905023109 | 65 | 0 | 0.0 | 2.0 | 0.00 | 0.00 | 0.00 | 85 | 1009.6 |
| 20260905022559 | 65 | 0 | 0.0 | 1.0 | 0.00 | 0.00 | 0.00 | 85 | 1009.6 |
| 20260905022059 | 66 | 0 | 0.0 | 2.0 | 0.00 | 0.00 | 0.00 | 85 | 1009.5 |
| 20260905021603 | 66 | 0 | 0.0 | 2.0 | 0.00 | 0.00 | 0.00 | 85 | 1009.6 |
| 20260905021059 | 66 | 0 | 0.0 | 0.0 | 0.00 | 0.00 | 0.00 | 85 | 1009.7 |
| 20260905020600 | 66 | 0 | 0.0 | 0.0 | 0.00 | 0.00 | 0.00 | 85 | 1009.7 |
| 20260905020104 | 66 | 0 | 0.0 | 0.0 | 0.00 | 0.00 | 0.00 | 84 | 1009.7 |
| 20260905015600 | 66 | 0 | 0.0 | 0.0 | 0.00 | 0.00 | 0.00 | 84 | 1009.8 |
| 20260905015100 | 66 | 0 | 0.0 | 0.0 | 0.00 | 0.00 | 0.00 | 84 | 1009.8 |
| 20260905014619 | 67 | 0 | 0.0 | 0.0 | 0.00 | 0.00 | 0.00 | 83 | 1009.9 |
| 20260905014104 | 67 | 0 | 0.0 | 0.0 | 0.00 | 0.00 | 0.00 | 83 | 1010.0 |
| 20260905013559 | 67 | 0 | 0.0 | 0.0 | 0.00 | 0.00 | 0.00 | 83 | 1010.0 |
| 20260905013121 | 67 | 0 | 0.0 | 1.0 | 0.00 | 0.00 | 0.00 | 84 | 1010.0 |
| 20260905012600 | 67 | 0 | 0.0 | 1.0 | 0.00 | 0.00 | 0.00 | 84 | 1010.0 |
| 20260905012100 | 67 | 0 | 0.0 | 1.0 | 0.00 | 0.00 | 0.00 | 84 | 1010.0 |
| 20260905011603 | 67 | 0 | 0.0 | 1.0 | 0.00 | 0.00 | 0.00 | 84 | 1010.0 |
| 20260905011100 | 68 | 246 | 0.0 | 2.0 | 0.00 | 0.00 | 0.00 | 84 | 1010.0 |
| 20260905010600 | 68 | 0 | 0.0 | 2.0 | 0.00 | 0.00 | 0.00 | 83 | 1010.1 |
| 20260905010107 | 68 | 0 | 0.0 | 2.0 | 0.00 | 0.00 | 0.00 | 83 | 1009.9 |
| 20260905005600 | 68 | 0 | 0.0 | 1.0 | 0.00 | 0.00 | 0.00 | 82 | 1010.0 |
| 20260905005100 | 68 | 0 | 0.0 | 2.0 | 0.00 | 0.00 | 0.00 | 81 | 1010.0 |
| 20260905004705 | 69 | 0 | 0.0 | 2.0 | 0.00 | 0.00 | 0.00 | 81 | 1010.0 |
| 20260905004100 | 69 | 0 | 0.0 | 2.0 | 0.00 | 0.00 | 0.00 | 80 | 1009.9 |
| 20260905003600 | 69 | 252 | 0.0 | 0.0 | 0.00 | 0.00 | 0.00 | 79 | 1010.0 |
| 20260905003105 | 70 | 0 | 0.0 | 1.0 | 0.00 | 0.00 | 0.00 | 78 | 1009.8 |
| 20260905002601 | 70 | 0 | 0.0 | 2.0 | 0.00 | 0.00 | 0.00 | 78 | 1009.9 |
| 20260905002100 | 70 | 0 | 0.0 | 2.0 | 0.00 | 0.00 | 0.00 | 77 | 1009.8 |
| 20260905001608 | 70 | 82 | 0.0 | 0.0 | 0.00 | 0.00 | 0.00 | 77 | 1009.8 |
| 20260905001100 | 70 | 0 | 0.0 | 0.0 | 0.00 | 0.00 | 0.00 | 78 | 1009.5 |
| 20260905000600 | 70 | 0 | 0.0 | 0.0 | 0.00 | 0.00 | 0.00 | 78 | 1009.6 |
| 20260905000105 | 70 | 0 | 0.0 | 2.0 | 0.00 | 0.00 | 0.00 | 78 | 1009.5 |
| 20260904235601 | 70 | 0 | 0.0 | 2.0 | 0.00 | 0.00 | 0.00 | 79 | 1009.5 |
| 20260904235103 | 70 | 0 | 0.0 | 2.0 | 0.00 | 0.00 | 0.00 | 79 | 1009.5 |
| 20260904234610 | 70 | 0 | 0.0 | 0.0 | 0.00 | 0.00 | 0.00 | 78 | 1009.4 |
| 20260904234100 | 70 | 0 | 0.0 | 0.0 | 0.00 | 0.00 | 0.00 | 78 | 1009.3 |
| 20260904233600 | 71 | 0 | 0.0 | 0.0 | 0.00 | 0.00 | 0.00 | 77 | 1009.3 |
| 20260904233104 | 71 | 0 | 0.0 | 0.0 | 0.00 | 0.00 | 0.00 | 78 | 1009.2 |
| 20260904232600 | 71 | 0 | 0.0 | 0.0 | 0.00 | 0.00 | 0.00 | 78 | 1009.3 |
| 20260904232100 | 71 | 0 | 0.0 | 0.0 | 0.00 | 0.00 | 0.00 | 76 | 1009.2 |
| 20260904231601 | 71 | 0 | 0.0 | 0.0 | 0.00 | 0.00 | 0.00 | 77 | 1009.1 |
| 20260904231059 | 72 | 0 | 0.0 | 0.0 | 0.00 | 0.00 | 0.00 | 76 | 1009.0 |
| 20260904230600 | 72 | 0 | 0.0 | 0.0 | 0.00 | 0.00 | 0.00 | 75 | 1009.0 |
| 20260904230110 | 72 | 0 | 0.0 | 0.0 | 0.00 | 0.00 | 0.00 | 75 | 1009.0 |
| 20260904225603 | 72 | 0 | 0.0 | 0.0 | 0.00 | 0.00 | 0.00 | 75 | 1009.1 |
| 20260904225103 | 72 | 0 | 0.0 | 0.0 | 0.00 | 0.00 | 0.00 | 74 | 1009.0 |
| 20260904224606 | 72 | 0 | 0.0 | 0.0 | 0.00 | 0.00 | 0.00 | 73 | 1009.0 |
| 20260904224100 | 73 | 0 | 0.0 | 0.0 | 0.00 | 0.00 | 0.00 | 74 | 1009.0 |
| 20260904223600 | 73 | 0 | 0.0 | 0.0 | 0.00 | 0.00 | 0.00 | 72 | 1008.8 |
| 20260904223111 | 73 | 0 | 0.0 | 0.0 | 0.00 | 0.00 | 0.00 | 73 | 1009.0 |
| 20260904222559 | 73 | 0 | 0.0 | 0.0 | 0.00 | 0.00 | 0.00 | 73 | 1008.9 |
| 20260904222059 | 74 | 0 | 0.0 | 0.0 | 0.00 | 0.00 | 0.00 | 72 | 1008.9 |
| 20260904221606 | 74 | 0 | 0.0 | 0.0 | 0.00 | 0.00 | 0.00 | 71 | 1008.8 |
| 20260904221100 | 74 | 0 | 0.0 | 0.0 | 0.00 | 0.00 | 0.00 | 69 | 1008.8 |
| 20260904220602 | 75 | 0 | 0.0 | 0.0 | 0.00 | 0.00 | 0.00 | 67 | 1008.8 |
| 20260904220105 | 75 | 0 | 0.0 | 0.0 | 0.00 | 0.00 | 0.00 | 65 | 1008.8 |
| 20260904215600 | 76 | 0 | 0.0 | 0.0 | 0.00 | 0.00 | 0.00 | 65 | 1008.8 |
| 20260904215100 | 76 | 0 | 0.0 | 0.0 | 0.00 | 0.00 | 0.00 | 64 | 1008.7 |
| 20260904214612 | 76 | 0 | 0.0 | 0.0 | 0.00 | 0.00 | 0.00 | 63 | 1008.7 |
| 20260904214101 | 76 | 0 | 0.0 | 0.0 | 0.00 | 0.00 | 0.00 | 64 | 1008.8 |
| 20260904213600 | 77 | 0 | 0.0 | 6.0 | 0.00 | 0.00 | 0.00 | 62 | 1008.8 |
| 20260904213105 | 77 | 0 | 0.0 | 6.0 | 0.00 | 0.00 | 0.00 | 60 | 1008.7 |
| 20260904212600 | 77 | 274 | 1.0 | 4.0 | 0.00 | 0.00 | 0.00 | 62 | 1008.7 |
| 20260904212101 | 78 | 240 | 0.0 | 4.0 | 0.00 | 0.00 | 0.00 | 60 | 1008.7 |
| 20260904211603 | 79 | 221 | 1.0 | 4.0 | 0.00 | 0.00 | 0.00 | 57 | 1008.6 |
| 20260904211059 | 79 | 249 | 0.0 | 4.0 | 0.00 | 0.00 | 0.00 | 59 | 1008.5 |
| 20260904210600 | 80 | 223 | 1.0 | 6.0 | 0.00 | 0.00 | 0.00 | 56 | 1008.5 |
| 20260904210113 | 79 | 231 | 1.0 | 6.0 | 0.00 | 0.00 | 0.00 | 56 | 1008.5 |
| 20260904205600 | 80 | 253 | 2.0 | 7.0 | 0.00 | 0.00 | 0.00 | 59 | 1008.5 |
| 20260904205059 | 80 | 242 | 2.0 | 7.0 | 0.00 | 0.00 | 0.00 | 56 | 1008.5 |